Regional Weather Roundup
Issued by NWS

Home | Current Version | Previous Version | Text Only | Print | Product List | Glossary On
Versions: 1 2 3 4 5 6 7 8 9 10 11 12 13 14 15 16 17 18 19 20 21 22 23 24 25 26 27 28 29 30 31 32 33 34 35 36 37 38 39 40 41 42 43 44 45 46 47 48 49 50
000
ASUS43 KMKX 250900
RWRWI

WISCONSIN REGIONAL WEATHER ROUNDUP
NATIONAL WEATHER SERVICE MILWAUKEE/SULLIVAN WI
400 AM CDT WED MAY 25 2016

NOTE: "FAIR" INDICATES FEW OR NO CLOUDS BELOW 12,000 FEET WITH NO
SIGNIFICANT WEATHER AND/OR OBSTRUCTIONS TO VISIBILITY.

WIZ001-002-006>008-014>016-023>028-251000-
NORTHWEST WISCONSIN

CITY           SKY/WX    TMP DP  RH WIND       PRES   REMARKS
SUPERIOR ARPT  SNOW      46  46 100 E7        30.04S VSB 1/2
ASHLAND        FOG       49  49 100 N3        30.03S VSB 1/4
HAYWARD        CLOUDY    52  50  93 NE8       30.00F
SIREN          CLOUDY    58  57  97 NE6       29.98S FOG
CUMBERLAND     CLOUDY    57  55  94 NE3       29.98S
RICE LAKE      CLOUDY    61  57  88 CALM      29.99F
CHETEK         CLOUDY    57  56  97 CALM      29.97F
LADYSMITH      CLOUDY    55  54  95 NE5       30.01F
EAU CLAIRE     NOT AVBL
MENOMONIE      CLOUDY    57  55  91 CALM      29.96F
NEW RICHMOND   CLOUDY    61  54  76 E7        29.95S
OSCEOLA        PTCLDY    61  57  87 E5        29.96S
$$

WIZ003>005-009-010-017-018-251000-
NORTH CENTRAL WISCONSIN

CITY           SKY/WX    TMP DP  RH WIND       PRES   REMARKS
MANITOWISH WTR NOT AVBL
ARBOR VITAE    FOG       57  56  96 NE3       30.03R VSB 1/4
WOODRUFF       FOG       57  56  96 NE3       30.03R VSB 1/4
RHINELANDER    FOG       54  53  97 CALM      30.03R VSB 1/4
EAGLE RIVER    FOG       58  58 100 CALM      30.03R VSB 1/4
LAND O LAKES   FOG       57  57 100 CALM      30.05R VSB 3/4
PHILLIPS       CLOUDY    50  50 100 CALM      30.01S
TOMAHAWK       FOG       46  45  97 CALM      30.02R VSB 1/4
MEDFORD        CLOUDY    56  56 100 E5        30.00R
MERRILL        FOG       52  52 100 CALM      30.01R VSB 1/2
$$

WIZ029-030-035-036-043>047-251000-
CENTRAL WISCONSIN

CITY           SKY/WX    TMP DP  RH WIND       PRES   REMARKS
WAUSAU         CLEAR     59  55  87 CALM      29.98S
MOSINEE        CLOUDY    54  54 100 CALM      30.01S
MARSHFIELD     CLOUDY    60  56  86 CALM      29.98S
STEVENS POINT  CLOUDY    51  50  96 CALM      30.00S
WAUPACA        CLEAR     56  55  94 CALM      29.98S
WAUTOMA        CLEAR     56  55  97 CALM      29.98
WISC RAPIDS    FOG       55  53  93 CALM      29.99F VSB 1/2
CAMP DOUGLAS   FOG       50  50 100 N1        29.97S VSB 1
$$

WIZ011>013-019>022-031-037>040-048>050-251000-
NORTHEAST WISCONSIN

CITY           SKY/WX    TMP DP  RH WIND       PRES   REMARKS
ANTIGO         CLEAR     51  51 100 CALM      30.02R
SHAWANO        CLEAR     62  60  93 NE3       30.00R
OCONTO         CLOUDY   N/A N/A N/A NE6       30.01R VSB 1
STURGEON BAY   NOT AVBL
GREEN BAY      CLOUDY    60  57  89 NE13      29.99R
MANITOWOC      NOT AVBL
APPLETON       CLEAR     61  52  72 CALM      29.97R
CLINTONVILLE   CLEAR     57  54  88 CALM      29.99R
OSHKOSH        CLEAR     60  56  86 CALM      29.98R
$$

WIZ032>034-041-042-053>061-251000-
SOUTHWEST WISCONSIN

CITY           SKY/WX    TMP DP  RH WIND       PRES   REMARKS
LA CROSSE      CLOUDY    61  57  87 SE9       29.93F
SPARTA         PTCLDY    50  49  97 CALM      29.97F
VIROQUA        CLOUDY    64  58  80 SE7       29.97F
BOSCOBEL       CLOUDY    59  58  96 NE3       29.94F FOG
PRAIRIE DU CHI CLOUDY    61  59  92 CALM      29.93F
PLATTEVILLE    CLEAR     67  62  86 S6        29.95F
$$

WIZ056-057-062-063-064-067-068-251000-
SOUTH CENTRAL WISCONSIN

CITY           SKY/WX    TMP DP  RH WIND       PRES   REMARKS
REEDSBURG      CLEAR     56  56 100 CALM      29.97S
BARABOO/DELLS  CLEAR     57  55  92 CALM      29.97S
LONE ROCK      NOT AVBL
MINERAL POINT  PTCLDY    68  61  77 E3        29.96F
MADISON        CLEAR     61  59  93 CALM      29.96F
MIDDLETON      CLEAR     59  59  98 CALM      29.97F
WATERTOWN      PTCLDY    62  62 100 NE3       29.96F
MONROE         CLEAR     64  59  82 SW6       29.96F
JANESVILLE     CLEAR     64  61  88 S6        29.96F
$$

WIZ051-052-058>065-066-070>072-251000-
SOUTHEAST WISCONSIN

CITY           SKY/WX    TMP DP  RH WIND       PRES   REMARKS
MILWAUKEE      PTCLDY    63  54  72 CALM      29.97S
WAUKESHA       CLEAR     57  57 100 CALM      29.98F FOG
MILWAUKEE/TIMM CLEAR     63  59  88 CALM      29.98S FOG
RACINE         CLEAR     69  58  67 SW8       29.98F
BURLINGTON     CLEAR     59  57  91 S5        29.97F
KENOSHA        CLEAR     68  59  73 SW8       29.98S
FOND DU LAC    CLEAR     57  55  93 CALM      29.98R
SHEBOYGAN      CLEAR     56  55  97 CALM      29.97S FOG
WEST BEND      CLEAR     57  55  94 CALM      29.98S
JUNEAU         MOCLDY    61  58  90 SE5       29.98F
$$

LSZ147-162-251000-
LAKE SUPERIOR

STATION/POSITION TIME  TEMP    WIND        PRES    WAVE
                       AIR SEA DIR/SP/G            HT/PER
                 (UTC) (F)     (DEG/KT/KT) (MB)    (FT/S)
W MID LAKE BUOY  0750   39 38   40/  6/  8 1017.8R   1/ 4
DEVILS ISLAND    0800   45      30/  8/  9 1018.0R
SAXON HARBOR     0800   46     310/  2/  4 1016.3R
$$

LMZ867-665-643>646-251000-
LAKE MICHIGAN

STATION/POSITION TIME  TEMP    WIND        PRES    WAVE
                       AIR SEA DIR/SP/G            HT/PER
                 (UTC) (F)     (DEG/KT/KT) (MB)    (FT/S)
CHAMBERS ISLAND  0800   55      20/ 12/ 15 1015.9R
N MID LAKE BUOY  0750   47 44   60/  6/  6 1015.3S   1/ 5
NORTHPORT PIER   0800   54     350/  7/  8 1015.9R
SISTER BAY       0835   54      20/  9/ 12   N/A
ALGOMA LAKESHORE 0832           70/ 10/ 12   N/A
KEWAUNEE LAKESHO 0800   51      20/  8/ 11 1014.3R
SHEBOYGAN LAKESH 0800   63     230/  2/  2 1015.1R
PORT WASHINGTON  0800   62     250/  2/  4 1015.6
S MID LAKE BUOY  0750   56 49  200/  8/ 10 1015.2R   0
KENOSHA   LAKESH 0800   63     180/ 10/ 10 1014.9S
$$

TC  - TEMPERATURE IN CELSIUS
VSB - VISIBILITY IN STATUTE MILES
WCI - WIND CHILL INDEX
HX  - HEAT INDEX




USA.gov is the U.S. government's official web portal to all federal, state and local government web resources and services.